KM4NDI Weather Reports


Display with metric or nautical units.
time (UTC)temp
F
wind
direction
speed
MPH
gust
MPH
rain 1hr
in
rain 24hr
in
rain mn
in
humidity
%
barometer
mb
20260904054533 74 0.0 0.0 0.00 0.00 0.00 99 1016.9
20260904053518 74 0.0 0.0 0.00 0.00 0.00 99 1016.9
20260904052521 74 0.0 0.0 0.00 0.00 0.00 99 1016.9
20260904051524 74 0.0 0.0 0.00 0.00 0.00 98 1016.9
20260904050527 74 0.0 0.0 0.00 0.00 0.00 98 1016.8
20260904045530 74 0.0 0.0 0.00 0.00 0.00 98 1016.8
20260904044515 74 0.0 0.0 0.00 0.00 0.00 98 1016.9
20260904043518 75 0.0 0.0 0.00 0.00 0.00 98 1016.9
20260904042521 75 0.0 0.0 0.00 0.00 0.00 97 1017.0
20260904041518 75 0.0 0.0 0.00 0.00 0.00 97 1017.0
20260904040615 75 0.0 0.0 0.00 0.00 0.00 96 1017.1
20260904035531 75 0.0 0.0 0.00 0.00 0.00 96 1017.1
20260904034516 75 0.0 0.0 0.00 0.00 0.00 96 1017.2
20260904033519 76 0.0 0.0 0.00 0.00 0.00 96 1017.2
20260904032522 76 0.0 0.0 0.00 0.00 0.00 95 1017.3
20260904031525 76 0.0 0.0 0.00 0.00 0.00 95 1017.5
20260904030529 76 0.0 0.0 0.00 0.00 0.00 95 1017.5
20260904025552 77 0.0 0.0 0.00 0.00 0.00 94 1017.5
20260904024517 77 0.0 0.0 0.00 0.00 0.00 94 1017.4
20260904023520 77 0.0 0.0 0.00 0.00 0.00 93 1017.4
20260904022543 77 0.0 0.0 0.00 0.00 0.00 93 1017.3
20260904021526 78 0.0 0.0 0.00 0.00 0.00 93 1017.2
20260904020529 78 0.0 0.0 0.00 0.00 0.00 92 1017.1
20260904015532 78 0.0 0.0 0.00 0.00 0.00 90 1016.9
20260904014518 79 0.0 0.0 0.00 0.00 0.00 90 1016.9
20260904013521 79 0.0 0.0 0.00 0.00 0.00 88 1016.8
20260904012524 80 0.0 0.0 0.00 0.00 0.00 87 1016.6
20260904011527 80 0.0 0.0 0.00 0.00 0.00 86 1016.4
20260904010544 81 0.0 0.0 0.00 0.00 0.00 85 1016.4
20260904005515 81 0.0 0.0 0.00 0.00 0.00 83 1016.4
20260904004520 82 0.0 0.0 0.00 0.00 0.00 81 1016.3
20260904003515 83 0.0 0.0 0.00 0.00 0.00 79 1016.3
20260904002525 84 0.0 0.0 0.00 0.00 0.00 77 1016.2
20260904001528 85 0.0 0.0 0.00 0.00 0.00 76 1016.1
20260904000531 86 0.0 0.0 0.00 0.00 0.00 71 1016.1
20260903235536 87 0.0 0.0 0.00 0.00 0.00 70 1016.0
20260903234519 88 0.0 0.0 0.00 0.00 0.00 67 1016.1
20260903233522 89 0.0 0.0 0.00 0.00 0.00 67 1016.0
20260903232525 89 0.0 0.0 0.00 0.00 0.00 65 1015.9
20260903231549 90 0.0 0.0 0.00 0.00 0.00 65 1015.9
20260903230532 90 0.0 0.0 0.00 0.00 0.00 67 1015.8
20260903225517 91 0.0 0.0 0.00 0.00 0.00 64 1015.8
20260903224520 90 0.0 0.0 0.00 0.00 0.00 68 1015.8
20260903223523 92 0.0 0.0 0.00 0.00 0.00 65 1015.8
20260903222526 93 0.0 0.0 0.00 0.00 0.00 61 1015.5
20260903221529 94 0.0 0.0 0.00 0.00 0.00 58 1015.5
20260903220532 94 0.0 0.0 0.00 0.00 0.00 55 1015.5
20260903215517 96 0.0 0.0 0.00 0.00 0.00 52 1015.5
20260903214520 99 0.0 0.0 0.00 0.00 0.00 46 1015.4
20260903213524 98 0.0 0.0 0.00 0.00 0.00 45 1015.3
20260903212521 97 90 0.0 2.0 0.00 0.00 0.00 45 1015.3
20260903211518 99 0.0 3.0 0.00 0.00 0.00 44 1015.3
20260903210515 99 0.0 0.0 0.00 0.00 0.00 44 1015.4
20260903205518 97 0.0 0.0 0.00 0.00 0.00 47 1015.5
20260903204521 97 0.0 0.0 0.00 0.00 0.00 45 1015.6
20260903203524 99 119 2.0 3.0 0.00 0.00 0.00 46 1015.6
20260903202608 100 0.0 0.0 0.00 0.00 0.00 41 1016.1
20260903201531 98 0.0 0.0 0.00 0.00 0.00 46 1016.2
20260903200536 98 0.0 0.0 0.00 0.00 0.00 47 1016.3
20260903195539 98 162 1.0 4.0 0.00 0.00 0.00 47 1016.6
20260903194522 97 0.0 0.0 0.00 0.00 0.00 48 1016.6
20260903193525 98 68 0.0 2.0 0.00 0.00 0.00 45 1016.8
20260903192528 99 205 1.0 5.0 0.00 0.00 0.00 43 1016.9
20260903191531 98 135 0.0 2.0 0.00 0.00 0.00 49 1017.0
20260903190517 96 0.0 0.0 0.00 0.00 0.00 48 1017.1
20260903185540 100 93 2.0 4.0 0.00 0.00 0.00 42 1017.2
20260903184523 98 85 2.0 4.0 0.00 0.00 0.00 45 1017.2
20260903183526 99 104 3.0 4.0 0.00 0.00 0.00 44 1017.2
20260903182529 99 187 1.0 4.0 0.00 0.00 0.00 43 1017.6
20260903181546 98 248 0.0 2.0 0.00 0.00 0.00 48 1017.8
20260903180537 97 163 1.0 3.0 0.00 0.00 0.00 52 1017.8
20260903175600 93 0.0 0.0 0.00 0.00 0.00 64 1017.8
20260903174517 94 0.0 0.0 0.00 0.00 0.00 61 1018.0
20260903173515 94 0.0 0.0 0.00 0.00 0.00 58 1018.1
20260903172530 92 0.0 0.0 0.00 0.00 0.00 62 1018.3
20260903171515 93 0.0 0.0 0.00 0.00 0.00 62 1018.5
20260903170518 93 0.0 0.0 0.00 0.00 0.00 59 1018.5
20260903165521 93 0.0 0.0 0.00 0.00 0.00 56 1018.5
20260903164524 96 113 1.0 3.0 0.00 0.00 0.00 50 1018.7
20260903163527 97 0.0 0.0 0.00 0.00 0.00 49 1018.8
20260903162530 97 0.0 0.0 0.00 0.00 0.00 56 1019.0
20260903161515 96 0.0 0.0 0.00 0.00 0.00 50 1019.0
20260903160518 96 0.0 0.0 0.00 0.00 0.00 50 1019.1
20260903155542 95 0.0 0.0 0.00 0.00 0.00 55 1019.2
20260903154525 94 0.0 0.0 0.00 0.00 0.00 57 1019.2
20260903153528 94 0.0 0.0 0.00 0.00 0.00 55 1019.2
20260903152551 93 0.0 0.0 0.00 0.00 0.00 57 1019.0
20260903151516 92 0.0 0.0 0.00 0.00 0.00 64 1019.0
20260903150539 92 180 0.0 1.0 0.00 0.00 0.00 60 1019.0
20260903145523 91 0.0 0.0 0.00 0.00 0.00 63 1018.9
20260903144525 90 0.0 0.0 0.00 0.00 0.00 66 1018.9
20260903143523 88 0.0 0.0 0.00 0.00 0.00 72 1018.9
20260903142520 89 0.0 0.0 0.00 0.00 0.00 69 1018.9
20260903141517 86 0.0 0.0 0.00 0.00 0.00 74 1019.0
20260903140520 85 0.0 0.0 0.00 0.00 0.00 77 1019.1
20260903135523 83 0.0 0.0 0.00 0.00 0.00 84 1019.2
20260903134527 80 0.0 0.0 0.00 0.00 0.00 92 1019.2
20260903133530 78 0.0 0.0 0.00 0.00 0.00 96 1019.2
20260903132515 78 0.0 0.0 0.00 0.00 0.00 96 1019.4
20260903131518 76 0.0 0.0 0.00 0.00 0.00 98 1019.2
20260903130521 75 0.0 0.0 0.00 0.00 0.00 99 1019.2
20260903125524 74 0.0 0.0 0.00 0.00 0.00 99 1019.2
20260903124528 73 0.0 0.0 0.00 0.00 0.00 99 1019.2
20260903123550 73 0.0 0.0 0.00 0.00 0.00 99 1019.2
20260903122516 72 0.0 0.0 0.00 0.00 0.00 99 1019.0
20260903121519 72 0.0 0.0 0.00 0.00 0.00 99 1019.0
20260903120522 72 0.0 0.0 0.00 0.00 0.00 99 1018.9
20260903115525 71 0.0 0.0 0.00 0.00 0.00 99 1018.9
20260903114528 71 0.0 0.0 0.00 0.00 0.00 99 1018.8
20260903113532 71 0.0 0.0 0.00 0.00 0.00 99 1018.7
20260903112537 71 0.0 0.0 0.00 0.00 0.00 99 1018.4
20260903111520 71 0.0 0.0 0.00 0.00 0.00 99 1018.3
20260903110523 72 0.0 0.0 0.00 0.00 0.00 99 1018.3
20260903105520 72 0.0 0.0 0.00 0.00 0.00 99 1018.2
20260903104517 72 0.0 0.0 0.00 0.00 0.00 99 1018.2
20260903103532 72 0.0 0.0 0.00 0.00 0.00 99 1018.2
20260903102517 72 0.0 0.0 0.00 0.00 0.00 99 1018.1
20260903101521 72 0.0 0.0 0.00 0.00 0.00 99 1018.2
20260903100523 72 0.0 0.0 0.00 0.00 0.00 99 1018.2
20260903095527 72 0.0 0.0 0.00 0.00 0.00 99 1018.2
20260903094530 72 0.0 0.0 0.00 0.00 0.00 99 1018.1
20260903093515 72 0.0 0.0 0.00 0.00 0.00 99 1018.1
20260903092518 72 0.0 0.0 0.00 0.00 0.00 99 1018.1
20260903091521 73 0.0 0.0 0.00 0.00 0.00 99 1018.1
20260903090544 73 0.0 0.0 0.00 0.00 0.00 99 1018.1
20260903085527 73 0.0 0.0 0.00 0.00 0.00 99 1018.0
20260903084530 73 0.0 0.0 0.00 0.00 0.00 99 1018.0
20260903083515 73 0.0 0.0 0.00 0.00 0.00 99 1018.0
20260903082519 73 0.0 0.0 0.00 0.00 0.00 99 1018.0
20260903081522 73 0.0 0.0 0.00 0.00 0.00 99 1017.9
20260903080525 73 0.0 0.0 0.00 0.00 0.00 99 1017.9
20260903075528 73 0.0 0.0 0.00 0.00 0.00 99 1017.9
20260903074545 73 0.0 0.0 0.00 0.00 0.00 99 1017.9
20260903073516 73 0.0 0.0 0.00 0.00 0.00 99 1018.0
20260903072539 73 0.0 0.0 0.00 0.00 0.00 99 1018.0
20260903071517 74 0.0 0.0 0.00 0.00 0.00 99 1018.0
20260903070526 74 0.0 0.0 0.00 0.00 0.00 99 1018.0
20260903065529 74 0.0 0.0 0.00 0.00 0.00 99 1017.9
20260903064533 74 0.0 0.0 0.00 0.00 0.00 99 1017.9
20260903063538 74 0.0 0.0 0.00 0.00 0.00 99 1018.0
20260903062521 74 0.0 0.0 0.00 0.00 0.00 99 1018.0
20260903061524 74 0.0 0.0 0.00 0.00 0.00 99 1018.1
20260903060527 74 0.0 0.0 0.00 0.00 0.00 99 1018.1
20260903055530 74 0.0 0.0 0.00 0.00 0.00 99 1018.1